Overview Statistics Trail Chart Weather Telemetry Raw packets
 

This is the latest recevied weather packets stored in our database for station/object KC4JIR. If no packets are shown the sender has not sent any weather packets the latest 10 day(s).

<< 1 2 3 4 >>
Time Temp. Humidity Pressure Rain* Wind** Luminosity Snow
1788630437 33.89° C 67% 1010.8 hPa 0 mm - 672 W/m² -
1788630132 33.89° C 67% 1010.8 hPa 0 mm - 672 W/m² -
1788629829 33.89° C 68% 1011 hPa 0 mm - 706 W/m² -
1788629558 33.89° C 69% 1010.7 hPa 0 mm - 741 W/m² -
1788629223 33.89° C 71% 1011 hPa 0 mm - 734 W/m² -
1788628917 33.33° C 71% 1011 hPa 0 mm - 727 W/m² -
1788628613 33.33° C 70% 1010.9 hPa 0 mm - 783 W/m² -
1788628309 33.33° C 71% 1011 hPa 0 mm - 768 W/m² -
1788628006 32.78° C 72% 1011.2 hPa 0 mm - 704 W/m² -
1788627701 32.78° C 75% 1011.3 hPa 0 mm - 718 W/m² -
1788627400 32.22° C 74% 1011.2 hPa 0 mm - 787 W/m² -
1788627096 32.22° C 76% 1011.3 hPa 0 mm - 370 W/m² -
1788626791 32.22° C 75% 1011.5 hPa 0 mm - 803 W/m² -
1788626490 31.67° C 77% 1011.5 hPa 0 mm - 781 W/m² -
1788626187 31.67° C 78% 1011.8 hPa 0 mm - 456 W/m² -
1788625883 31.67° C 78% 1011.8 hPa 0 mm - 520 W/m² -
1788625579 31.67° C 79% 1012 hPa 0 mm - 256 W/m² -
1788625278 31.67° C 80% 1011.7 hPa 0 mm - 308 W/m² -
1788624978 31.67° C 80% 1012 hPa 0 mm - 918 W/m² -
1788624675 31.11° C 78% 1011.9 hPa 0 mm - 919 W/m² -
1788624375 30° C 82% 1012.1 hPa 0 mm - 980 W/m² -
1788624069 30° C 85% 1011.8 hPa 0 mm - 313 W/m² -
1788623764 31.11° C 81% 1011.9 hPa 0 mm - 211 W/m² -
1788623463 31.11° C 78% 1012 hPa 0 mm - 553 W/m² -
1788623157 30.56° C 81% 1012 hPa 0 mm - 863 W/m² -

* Rain latest hour (hover to see other rain measurements)
** Current wind speed in m/s (hover to see current wind gust speed)